Meteo orario Alibag

Oggi, 22 Ottobre, Giovedi

Tempo Temperatura Precipitazioni Vento Pressione Umidità
00:00 +28°C° 2.7 mm 1 m/s 755 mm Hg 91%
01:00 +27°C° 2.7 mm 2 m/s 755 mm Hg 92%
02:00 +27°C° 2.7 mm 2 m/s 754 mm Hg 93%
03:00 +27°C° 1.7 mm 2 m/s 754 mm Hg 92%
04:00 +27°C° 1.7 mm 2 m/s 754 mm Hg 92%
05:00 +27°C° 0 mm 2 m/s 754 mm Hg 91%
06:00 +27°C° 0.6 mm 2 m/s 755 mm Hg 90%
07:00 +28°C° 0.6 mm 2 m/s 755 mm Hg 89%
08:00 +29°C° 0.6 mm 2 m/s 756 mm Hg 87%
09:00 +30°C° 0.1 mm 1 m/s 756 mm Hg 82%
10:00 +32°C° 0.1 mm 1 m/s 755 mm Hg 76%
11:00 +33°C° 0.1 mm 1 m/s 755 mm Hg 70%
12:00 +33°C° 0.1 mm 1 m/s 754 mm Hg 71%
13:00 +34°C° 0.1 mm 2 m/s 754 mm Hg 72%
14:00 +34°C° 0.1 mm 2 m/s 753 mm Hg 73%
15:00 +32°C° 0.5 mm 2 m/s 753 mm Hg 77%
16:00 +31°C° 0.5 mm 2 m/s 753 mm Hg 81%
17:00 +30°C° 0.5 mm 1 m/s 753 mm Hg 85%
18:00 +30°C° 0.2 mm 1 m/s 754 mm Hg 86%
19:00 +29°C° 0.2 mm 1 m/s 754 mm Hg 86%
20:00 +27°C° 0.2 mm 0 m/s 755 mm Hg 87%
21:00 +28°C° 1.1 mm 1 m/s 755 mm Hg 88%
22:00 +28°C° 1.1 mm 1 m/s 755 mm Hg 89%
23:00 +28°C° 1.1 mm 1 m/s 755 mm Hg 89%

Domani, 23 Ottobre, Venerdi

Tempo Temperatura Precipitazioni Vento Pressione Umidità
00:00 +27°C° 0.7 mm 1 m/s 754 mm Hg 90%
01:00 +27°C° 0.7 mm 1 m/s 754 mm Hg 90%
02:00 +27°C° 0.7 mm 2 m/s 754 mm Hg 91%
03:00 +27°C° 0.1 mm 2 m/s 753 mm Hg 90%
04:00 +27°C° 0.1 mm 2 m/s 753 mm Hg 90%
05:00 +27°C° 0.1 mm 2 m/s 753 mm Hg 89%
06:00 +28°C° 0 mm 1 m/s 754 mm Hg 87%
07:00 +29°C° 0 mm 1 m/s 755 mm Hg 84%
08:00 +29°C° 0 mm 1 m/s 756 mm Hg 82%
09:00 +31°C° 0.1 mm 1 m/s 755 mm Hg 77%
10:00 +32°C° 0.1 mm 1 m/s 755 mm Hg 72%
11:00 +33°C° 0.1 mm 1 m/s 755 mm Hg 67%
12:00 +33°C° 0.2 mm 1 m/s 754 mm Hg 67%
13:00 +33°C° 0.2 mm 1 m/s 754 mm Hg 67%
14:00 +34°C° 0.2 mm 2 m/s 753 mm Hg 67%
15:00 +32°C° 0.4 mm 2 m/s 753 mm Hg 73%
16:00 +32°C° 0.4 mm 1 m/s 753 mm Hg 78%
17:00 +31°C° 0.4 mm 1 m/s 753 mm Hg 84%
18:00 +30°C° 0.2 mm 1 m/s 754 mm Hg 84%
19:00 +29°C° 0.2 mm 1 m/s 755 mm Hg 85%
20:00 +29°C° 0.2 mm 1 m/s 755 mm Hg 86%
21:00 +28°C° 0.3 mm 1 m/s 755 mm Hg 86%
22:00 +28°C° 0.3 mm 1 m/s 755 mm Hg 87%
23:00 +28°C° 0.3 mm 1 m/s 755 mm Hg 87%

Dopodomani, 24 Ottobre, Sabato

Tempo Temperatura Precipitazioni Vento Pressione Umidità
00:00 +27°C° 0.1 mm 1 m/s 755 mm Hg 87%
01:00 +27°C° 0.1 mm 1 m/s 755 mm Hg 88%
02:00 +27°C° 0.1 mm 2 m/s 754 mm Hg 88%
03:00 +27°C° 0 mm 2 m/s 754 mm Hg 88%
04:00 +27°C° 0 mm 2 m/s 754 mm Hg 88%
05:00 +26°C° 0 mm 2 m/s 754 mm Hg 89%
06:00 +27°C° 0 mm 2 m/s 755 mm Hg 86%
07:00 +28°C° 0 mm 2 m/s 756 mm Hg 84%
08:00 +29°C° 0 mm 2 m/s 756 mm Hg 82%
09:00 +30°C° 0.2 mm 1 m/s 756 mm Hg 76%
10:00 +32°C° 0.2 mm 1 m/s 756 mm Hg 69%
11:00 +33°C° 0.2 mm 1 m/s 756 mm Hg 63%
12:00 +33°C° 0.1 mm 1 m/s 755 mm Hg 63%
13:00 +34°C° 0.1 mm 2 m/s 755 mm Hg 63%
14:00 +34°C° 0.1 mm 2 m/s 754 mm Hg 63%
15:00 +32°C° 0.1 mm 2 m/s 754 mm Hg 68%
16:00 +32°C° 0.1 mm 1 m/s 754 mm Hg 74%
17:00 +31°C° 0.1 mm 1 m/s 754 mm Hg 79%
18:00 +30°C° 0.2 mm 1 m/s 755 mm Hg 81%
19:00 +29°C° 0.2 mm 1 m/s 756 mm Hg 82%
20:00 +26°C° 0.2 mm 0 m/s 756 mm Hg 83%
21:00 +26°C° 0 mm 0 m/s 756 mm Hg 84%
22:00 +26°C° 0 mm 0 m/s 756 mm Hg 84%
23:00 +26°C° 0 mm 0 m/s 757 mm Hg 84%

, 25 Ottobre, Domenica

Tempo Temperatura Precipitazioni Vento Pressione Umidità
00:00 +26°C° 0 mm 0 m/s 756 mm Hg 84%
01:00 +28°C° 0 mm 1 m/s 756 mm Hg 84%
02:00 +28°C° 0 mm 1 m/s 756 mm Hg 83%
03:00 +28°C° 0.1 mm 1 m/s 756 mm Hg 83%
04:00 +28°C° 0.1 mm 1 m/s 756 mm Hg 84%
05:00 +28°C° 0.1 mm 1 m/s 756 mm Hg 84%
06:00 +28°C° 0 mm 1 m/s 757 mm Hg 82%
07:00 +29°C° 0 mm 1 m/s 757 mm Hg 81%
08:00 +29°C° 0 mm 1 m/s 758 mm Hg 80%
09:00 +31°C° 0.1 mm 1 m/s 758 mm Hg 73%
10:00 +32°C° 0.1 mm 1 m/s 758 mm Hg 66%
11:00 +33°C° 0.1 mm 1 m/s 758 mm Hg 59%
12:00 +33°C° 0 mm 1 m/s 757 mm Hg 59%
13:00 +34°C° 0 mm 2 m/s 757 mm Hg 59%
14:00 +34°C° 0 mm 2 m/s 756 mm Hg 59%
15:00 +32°C° 0.3 mm 2 m/s 756 mm Hg 66%
16:00 +31°C° 0.3 mm 2 m/s 756 mm Hg 72%
17:00 +30°C° 0.3 mm 2 m/s 756 mm Hg 79%
18:00 +29°C° 0.3 mm 2 m/s 757 mm Hg 80%
19:00 +29°C° 0.3 mm 1 m/s 757 mm Hg 82%
20:00 +28°C° 0.3 mm 1 m/s 758 mm Hg 83%
21:00 +28°C° 0.1 mm 1 m/s 758 mm Hg 84%
22:00 +26°C° 0.1 mm 0 m/s 758 mm Hg 84%
23:00 +26°C° 0.1 mm 0 m/s 758 mm Hg 85%

25 Ottobre, Domenica

Tempo Temperatura Precipitazioni Vento Pressione Umidità
00:00 +26°C° 0 mm 0 m/s 756 mm Hg 84%
01:00 +28°C° 0 mm 1 m/s 756 mm Hg 84%
02:00 +28°C° 0 mm 1 m/s 756 mm Hg 83%
03:00 +28°C° 0.1 mm 1 m/s 756 mm Hg 83%
04:00 +28°C° 0.1 mm 1 m/s 756 mm Hg 84%
05:00 +28°C° 0.1 mm 1 m/s 756 mm Hg 84%
06:00 +28°C° 0 mm 1 m/s 757 mm Hg 82%
07:00 +29°C° 0 mm 1 m/s 757 mm Hg 81%
08:00 +29°C° 0 mm 1 m/s 758 mm Hg 80%
09:00 +31°C° 0.1 mm 1 m/s 758 mm Hg 73%
10:00 +32°C° 0.1 mm 1 m/s 758 mm Hg 66%
11:00 +33°C° 0.1 mm 1 m/s 758 mm Hg 59%
12:00 +33°C° 0 mm 1 m/s 757 mm Hg 59%
13:00 +34°C° 0 mm 2 m/s 757 mm Hg 59%
14:00 +34°C° 0 mm 2 m/s 756 mm Hg 59%
15:00 +32°C° 0.3 mm 2 m/s 756 mm Hg 66%
16:00 +31°C° 0.3 mm 2 m/s 756 mm Hg 72%
17:00 +30°C° 0.3 mm 2 m/s 756 mm Hg 79%
18:00 +29°C° 0.3 mm 2 m/s 757 mm Hg 80%
19:00 +29°C° 0.3 mm 1 m/s 757 mm Hg 82%
20:00 +28°C° 0.3 mm 1 m/s 758 mm Hg 83%
21:00 +28°C° 0.1 mm 1 m/s 758 mm Hg 84%
22:00 +26°C° 0.1 mm 0 m/s 758 mm Hg 84%
23:00 +26°C° 0.1 mm 0 m/s 758 mm Hg 85%

26 Ottobre, Lunedi

Tempo Temperatura Precipitazioni Vento Pressione Umidità
00:00 +28°C° 0 mm 1 m/s 758 mm Hg 85%
01:00 +28°C° 0 mm 1 m/s 757 mm Hg 84%
02:00 +27°C° 0 mm 1 m/s 757 mm Hg 84%
03:00 +27°C° 0.1 mm 1 m/s 757 mm Hg 84%
04:00 +27°C° 0.1 mm 1 m/s 757 mm Hg 84%
05:00 +26°C° 0.1 mm 2 m/s 757 mm Hg 84%
06:00 +27°C° 0.1 mm 2 m/s 758 mm Hg 82%
07:00 +28°C° 0.1 mm 2 m/s 758 mm Hg 80%
08:00 +28°C° 0.1 mm 2 m/s 759 mm Hg 78%
09:00 +30°C° 0 mm 2 m/s 759 mm Hg 71%
10:00 +32°C° 0 mm 2 m/s 759 mm Hg 64%
11:00 +34°C° 0 mm 2 m/s 759 mm Hg 56%
12:00 +35°C° 0 mm 2 m/s 758 mm Hg 55%
13:00 +34°C° 0 mm 1 m/s 757 mm Hg 53%
14:00 +35°C° 0 mm 1 m/s 757 mm Hg 52%
15:00 +33°C° 0 mm 1 m/s 757 mm Hg 58%
16:00 +32°C° 0 mm 2 m/s 757 mm Hg 64%
17:00 +31°C° 0 mm 3 m/s 757 mm Hg 70%
18:00 +30°C° 0 mm 2 m/s 757 mm Hg 73%
19:00 +29°C° 0 mm 2 m/s 757 mm Hg 75%
20:00 +28°C° 0 mm 2 m/s 758 mm Hg 78%
21:00 +28°C° 0 mm 2 m/s 758 mm Hg 78%
22:00 +28°C° 0 mm 2 m/s 758 mm Hg 79%
23:00 +28°C° 0 mm 2 m/s 758 mm Hg 80%

27 Ottobre, Martedi

Tempo Temperatura Precipitazioni Vento Pressione Umidità
00:00 +27°C° 0 mm 2 m/s 757 mm Hg 79%
01:00 +27°C° 0 mm 2 m/s 757 mm Hg 79%
02:00 +27°C° 0 mm 2 m/s 757 mm Hg 79%
03:00 +27°C° 0 mm 2 m/s 757 mm Hg 77%
04:00 +26°C° 0 mm 2 m/s 757 mm Hg 75%
05:00 +26°C° 0 mm 2 m/s 757 mm Hg 73%
06:00 +27°C° 0 mm 2 m/s 757 mm Hg 72%
07:00 +27°C° 0 mm 2 m/s 758 mm Hg 71%
08:00 +28°C° 0 mm 2 m/s 758 mm Hg 70%
09:00 +30°C° 0 mm 2 m/s 758 mm Hg 65%
10:00 +31°C° 0 mm 2 m/s 758 mm Hg 59%
11:00 +33°C° 0 mm 1 m/s 758 mm Hg 54%
12:00 +34°C° 0 mm 1 m/s 758 mm Hg 51%
13:00 +34°C° 0 mm 1 m/s 757 mm Hg 48%
14:00 +34°C° 0 mm 1 m/s 756 mm Hg 45%
15:00 +34°C° 0 mm 2 m/s 756 mm Hg 54%
16:00 +33°C° 0 mm 3 m/s 757 mm Hg 63%
17:00 +30°C° 0 mm 3 m/s 757 mm Hg 72%
18:00 +29°C° 0 mm 3 m/s 757 mm Hg 73%
19:00 +29°C° 0 mm 3 m/s 757 mm Hg 74%
20:00 +28°C° 0 mm 2 m/s 758 mm Hg 76%
21:00 +28°C° 0 mm 2 m/s 758 mm Hg 76%
22:00 +27°C° 0 mm 1 m/s 758 mm Hg 77%
23:00 +27°C° 0 mm 1 m/s 758 mm Hg 78%
Mostrare altro

Abbiamo bisogno del tuo consenso

Meteoprog e i nostri fornitori di servizi possono memorizzare e accedere a dati personali come cookie, identificatori di dispositivi o altre tecnologie simili sul tuo dispositivo e possono elaborare tali dati per personalizzare i contenuti e gli annunci, nonché fornire funzionalità dei social media e analizzarne il traffico.

  • Archiviare e/o accedere alle informazioni sul tuo dispositivo

    Cookie, identificatori di dispositivi o altre informazioni possono essere memorizzati o resi accessibili sul tuo dispositivo per le finalità sopra indicate.

  • Annunci e contenuti personalizzati, misurazione di annunci e contenuti, approfondimenti sul pubblico e sviluppo di prodotti

    Gli annunci e i contenuti possono essere personalizzati in base a un profilo. È possibile aggiungere più dati per personalizzare meglio annunci e contenuti. È possibile misurare il rendimento degli annunci e dei contenuti. È possibile ricavare informazioni sul pubblico che ha visto gli annunci e i contenuti. Tali dati possono essere utilizzati per sviluppare o migliorare l'esperienza, i sistemi e il software dell'utente.

Cliccando su “Accetto”, acconsenti all'uso di cookie, identificatori di dispositivo, web beacon o altre tecnologie simili. Puoi modificare le impostazioni nel browser del tuo dispositivo.

Per determinati scopi, è possibile fare affidamento su interessi legali, piuttosto che sul consenso. Puoi approfondire questo argomento consultando la nostra Informativa sulla privacy e sui cookie.